| time (UTC) | temp C | wind direction | speed KPH | gust KPH | rain 1hr cm | rain 24hr cm | rain mn cm | humidity % | barometer mb |
| 20260505041333 | 16 | 81 | 0.0 | 0.0 | 0.00 | 0.00 | 0.00 | 79 | 1012.3 |
| 20260505040358 | 16 | 81 | 0.0 | 0.0 | 0.00 | 0.00 | 0.00 | 79 | 1012.1 |
| 20260505035341 | 16 | 81 | 0.0 | 0.0 | 0.00 | 0.00 | 0.00 | 78 | 1012.1 |
| 20260505034410 | 16 | 81 | 0.0 | 1.6 | 0.00 | 0.00 | 0.00 | 79 | 1012.1 |
| 20260505033352 | 16 | 81 | 0.0 | 1.6 | 0.00 | 0.00 | 0.00 | 79 | 1012.0 |
| 20260505032351 | 15 | 81 | 0.0 | 1.6 | 0.00 | 0.00 | 0.00 | 78 | 1012.0 |
| 20260505031337 | 15 | 81 | 0.0 | 0.0 | 0.00 | 0.00 | 0.00 | 78 | 1012.0 |
| 20260505030341 | 15 | 81 | 0.0 | 1.6 | 0.00 | 0.00 | 0.00 | 78 | 1012.0 |
| 20260505025345 | 15 | 81 | 0.0 | 0.0 | 0.00 | 0.00 | 0.00 | 78 | 1012.2 |
| 20260505024350 | 16 | 81 | 0.0 | 0.0 | 0.00 | 0.00 | 0.00 | 77 | 1012.3 |
| 20260505023336 | 16 | 81 | 0.0 | 0.0 | 0.00 | 0.00 | 0.00 | 77 | 1012.0 |
| 20260505022359 | 15 | 81 | 0.0 | 0.0 | 0.00 | 0.00 | 0.00 | 77 | 1012.2 |
| 20260505021357 | 16 | 81 | 0.0 | 0.0 | 0.00 | 0.00 | 0.00 | 77 | 1012.1 |
| 20260505020335 | 16 | 81 | 0.0 | 0.0 | 0.00 | 0.00 | 0.00 | 77 | 1012.0 |
| 20260505015334 | 16 | 81 | 0.0 | 0.0 | 0.00 | 0.00 | 0.00 | 75 | 1012.0 |
| 20260505014337 | 16 | 81 | 0.0 | 0.0 | 0.00 | 0.00 | 0.00 | 75 | 1011.9 |
| 20260505013342 | 16 | 81 | 0.0 | 1.6 | 0.00 | 0.00 | 0.00 | 74 | 1011.8 |
| 20260505012406 | 16 | 81 | 0.0 | 1.6 | 0.00 | 0.00 | 0.00 | 74 | 1011.7 |
| 20260505011351 | 16 | 81 | 0.0 | 1.6 | 0.00 | 0.00 | 0.00 | 74 | 1011.7 |
| 20260505010333 | 16 | 81 | 0.0 | 1.6 | 0.00 | 0.00 | 0.00 | 75 | 1011.6 |
| 20260505005339 | 16 | 81 | 0.0 | 3.2 | 0.00 | 0.00 | 0.00 | 75 | 1011.5 |
| 20260505004341 | 16 | 53 | 0.0 | 0.0 | 0.00 | 0.00 | 0.00 | 74 | 1011.4 |
| 20260505003345 | 17 | 52 | 0.0 | 3.2 | 0.00 | 0.00 | 0.00 | 75 | 1011.1 |
| 20260505002349 | 17 | 60 | 0.0 | 4.8 | 0.00 | 0.00 | 0.00 | 75 | 1011.0 |
| 20260505001412 | 17 | 65 | 0.0 | 3.2 | 0.00 | 0.00 | 0.00 | 76 | 1010.9 |
| 20260505000336 | 17 | 90 | 0.0 | 1.6 | 0.00 | 0.00 | 0.00 | 76 | 1011.1 |
| 20260504235338 | 17 | 53 | 1.6 | 3.2 | 0.00 | 0.00 | 0.00 | 76 | 1011.1 |
| 20260504234343 | 17 | 60 | 0.0 | 4.8 | 0.00 | 0.00 | 0.00 | 76 | 1011.2 |
| 20260504233348 | 17 | 54 | 0.0 | 3.2 | 0.00 | 0.00 | 0.00 | 76 | 1011.1 |
| 20260504232350 | 17 | 55 | 0.0 | 1.6 | 0.00 | 0.00 | 0.00 | 75 | 1011.1 |
| 20260504231334 | 17 | 55 | 0.0 | 3.2 | 0.00 | 0.00 | 0.00 | 75 | 1011.0 |
| 20260504230337 | 17 | 93 | 0.0 | 1.6 | 0.00 | 0.00 | 0.00 | 74 | 1010.9 |
| 20260504225341 | 17 | 92 | 0.0 | 1.6 | 0.00 | 0.00 | 0.00 | 73 | 1010.9 |
| 20260504224339 | 17 | 98 | 0.0 | 1.6 | 0.00 | 0.00 | 0.00 | 71 | 1010.8 |
| 20260504223342 | 18 | 311 | 1.6 | 6.4 | 0.00 | 0.00 | 0.00 | 70 | 1010.7 |
| 20260504222346 | 18 | 30 | 0.0 | 4.8 | 0.00 | 0.00 | 0.00 | 68 | 1010.7 |
| 20260504221412 | 18 | 36 | 1.6 | 6.4 | 0.00 | 0.00 | 0.00 | 67 | 1010.8 |
| 20260504220336 | 18 | 23 | 1.6 | 6.4 | 0.00 | 0.00 | 0.00 | 65 | 1010.7 |
| 20260504215340 | 18 | 40 | 3.2 | 6.4 | 0.00 | 0.00 | 0.00 | 63 | 1010.5 |
| 20260504214342 | 18 | 8 | 0.0 | 6.4 | 0.00 | 0.00 | 0.00 | 60 | 1010.4 |
| 20260504213341 | 19 | 27 | 3.2 | 8.0 | 0.00 | 0.00 | 0.00 | 58 | 1010.4 |
| 20260504212344 | 20 | 58 | 1.6 | 11.3 | 0.00 | 0.00 | 0.00 | 56 | 1010.2 |
| 20260504211348 | 20 | 44 | 1.6 | 8.0 | 0.00 | 0.00 | 0.00 | 54 | 1010.1 |
| 20260504210335 | 20 | 330 | 1.6 | 11.3 | 0.00 | 0.00 | 0.00 | 53 | 1010.1 |
| 20260504205339 | 21 | 11 | 3.2 | 12.9 | 0.00 | 0.00 | 0.00 | 51 | 1010.3 |
| 20260504204342 | 21 | 342 | 6.4 | 12.9 | 0.00 | 0.00 | 0.00 | 49 | 1010.3 |
| 20260504203346 | 22 | 338 | 1.6 | 8.0 | 0.00 | 0.00 | 0.00 | 48 | 1010.4 |
| 20260504202345 | 22 | 42 | 1.6 | 9.7 | 0.00 | 0.00 | 0.00 | 48 | 1010.2 |
| 20260504201351 | 22 | 321 | 3.2 | 16.1 | 0.00 | 0.00 | 0.00 | 48 | 1010.2 |
| 20260504200335 | 22 | 333 | 3.2 | 8.0 | 0.00 | 0.00 | 0.00 | 48 | 1010.2 |
| 20260504195340 | 21 | 339 | 1.6 | 12.9 | 0.00 | 0.00 | 0.00 | 49 | 1010.2 |
| 20260504194343 | 22 | 27 | 4.8 | 12.9 | 0.00 | 0.00 | 0.00 | 47 | 1010.2 |
| 20260504193349 | 22 | 49 | 3.2 | 14.5 | 0.00 | 0.00 | 0.00 | 46 | 1010.1 |
| 20260504192345 | 22 | 311 | 4.8 | 9.7 | 0.00 | 0.00 | 0.00 | 44 | 1010.2 |
| 20260504191407 | 22 | 328 | 4.8 | 11.3 | 0.00 | 0.00 | 0.00 | 45 | 1010.0 |
| 20260504190350 | 22 | 328 | 6.4 | 12.9 | 0.00 | 0.00 | 0.00 | 43 | 1010.0 |
| 20260504185335 | 22 | 307 | 4.8 | 9.7 | 0.00 | 0.00 | 0.00 | 44 | 1010.0 |
| 20260504184338 | 21 | 265 | 4.8 | 9.7 | 0.00 | 0.00 | 0.00 | 44 | 1009.9 |
| 20260504183341 | 21 | 321 | 1.6 | 12.9 | 0.00 | 0.00 | 0.00 | 45 | 1009.8 |
| 20260504182345 | 21 | 262 | 6.4 | 14.5 | 0.00 | 0.00 | 0.00 | 43 | 1009.9 |
| 20260504181349 | 21 | 338 | 6.4 | 12.9 | 0.00 | 0.00 | 0.00 | 43 | 1010.0 |
| 20260504180334 | 21 | 232 | 3.2 | 9.7 | 0.00 | 0.00 | 0.00 | 45 | 1010.2 |
| 20260504175333 | 20 | 319 | 3.2 | 14.5 | 0.00 | 0.00 | 0.00 | 46 | 1010.3 |
| 20260504174336 | 20 | 275 | 8.0 | 11.3 | 0.00 | 0.00 | 0.00 | 45 | 1010.5 |
| 20260504173336 | 20 | 282 | 8.0 | 14.5 | 0.00 | 0.00 | 0.00 | 44 | 1010.9 |
| 20260504172336 | 21 | 339 | 4.8 | 14.5 | 0.00 | 0.00 | 0.00 | 44 | 1011.0 |
| 20260504171338 | 20 | 287 | 8.0 | 16.1 | 0.00 | 0.00 | 0.00 | 44 | 1011.2 |
| 20260504170341 | 20 | 357 | 4.8 | 12.9 | 0.00 | 0.00 | 0.00 | 46 | 1011.4 |
| 20260504160338 | 19 | 278 | 9.7 | 16.1 | 0.00 | 0.00 | 0.00 | 51 | 1012.8 |
| 20260504150346 | 18 | 347 | 9.7 | 14.5 | 0.00 | 0.00 | 0.00 | 53 | 1013.0 |
| 20260504140332 | 16 | 309 | 6.4 | 16.1 | 0.00 | 0.00 | 0.00 | 59 | 1013.0 |
| 20260504130336 | 15 | 323 | 8.0 | 17.7 | 0.00 | 0.00 | 0.00 | 63 | 1013.6 |
| 20260504110340 | 13 | 28 | 1.6 | 9.7 | 0.00 | 0.00 | 0.00 | 68 | 1013.3 |
| 20260504100343 | 13 | 324 | 4.8 | 12.9 | 0.00 | 0.00 | 0.00 | 65 | 1013.3 |
| 20260504081353 | 13 | 66 | 6.4 | 12.9 | 0.00 | 0.00 | 0.00 | 61 | 1012.5 |
| 20260504080356 | 13 | 330 | 4.8 | 19.3 | 0.00 | 0.00 | 0.00 | 61 | 1012.6 |
| 20260504070350 | 14 | 303 | 6.4 | 11.3 | 0.00 | 0.00 | 0.00 | 60 | 1013.4 |
| 20260504050343 | 14 | 16 | 1.6 | 9.7 | 0.00 | 0.00 | 0.00 | 61 | 1014.2 |